STARLINK-34542

Last updated on Mon Oct 20 2025 00:02:08 GMT+0000 (Coordinated Universal Time)

1 65890U 25224J 25292.25002315 -.01459392 00000+0 -78397-2 0 9991 2 65890 53.1510 313.5298 0001266 77.0825 28.9599 15.82213839 3153
UTC large
Height (km)
Speed (km/s)
/
Latitude / Longitude
Inclination (degrees)
Orbital Period (minutes)
Azimuth
Elevation
Range (km)
Doppler Factor

Next 0 passes for location: London (51.5072 / 0.1276)

Sorry there are no passes over London.